Regional Weather Roundup
Issued by NWS Sioux Falls, SD

Home | Current Version | Previous Version | Text Only | Print | Product List | Glossary On
Versions: 1 2 3 4 5 6 7 8 9 10 11 12 13 14 15 16 17 18 19 20 21 22 23 24 25 26 27 28 29 30 31 32 33 34 35 36 37 38 39 40 41 42 43 44 45 46 47 48 49 50
000
ASUS43 KFSD 012110
RWRFSD

WEATHER ROUNDUP FOR SE SOUTH DAKOTA/SW MINNESOTA/NW IOWA
NATIONAL WEATHER SERVICE SIOUX FALLS SD
400 PM CDT MON SEP 01 2014

NOTE: "FAIR" INDICATES FEW OR NO CLOUDS BELOW 12,000 FEET WITH NO
SIGNIFICANT WEATHER AND OR OBSTRUCTIONS TO VISIBILITY.


SDZ038>040-050-052>070-012200-
SOUTHEAST SOUTH DAKOTA

CITY           SKY/WX    TMP DP  RH WIND       PRES   REMARKS
CHAMBERLAIN    MOSUNNY   78  51  39 SW7       29.83F
HURON          PTSUNNY   78  52  40 VRB5      29.80F
MADISON        FAIR      73  55  53 W8        29.85S
MITCHELL       MOSUNNY   78  55  44 W8        29.83F
SIOUX FALLS    MOSUNNY   76  59  55 NW8       29.84F
WINNER         FAIR      79  48  33 VRB5      29.84F
YANKTON        SUNNY     75  57  53 NW8       29.85S
$$

MNZ071-072-080-081-089-090-097-098-012200-
SOUTHWEST MINNESOTA

CITY           SKY/WX    TMP DP  RH WIND       PRES   REMARKS
FAIRMONT       PTSUNNY   72  59  64 W7        29.82S
JACKSON        TSTM      64  55  72 SE5       29.86R
LUVERNE        SUNNY     75  59  57 NW12      29.85S
MARSHALL       SUNNY     77  54  44 NW13      29.79F
MONTEVIDEO     SUNNY     79  59  50 NW8       29.79F
PIPESTONE      MOSUNNY   75  57  53 W12G17    29.84S
REDWOOD FALLS  MOSUNNY   78  55  44 W14       29.79F
TRACY          MOSUNNY   77  56  48 W8        29.82S
WINDOM         MOSUNNY   72  61  68 SW3       29.82F
WORTHINGTON    MOSUNNY   75  57  53 W15       29.84F
$$

IAZ001>003-012>014-020>022-031-032-NEZ013-014-SDZ071-012200-
NORTHWEST IOWA

CITY           SKY/WX    TMP DP  RH WIND       PRES   REMARKS
CHEROKEE       MOSUNNY   76  62  61 W9        29.84S
DENISON        MOSUNNY   75  63  64 NW6       29.85S
ESTHERVILLE    SUNNY     74  60  61 W7        29.82S
LE MARS        PTSUNNY   77  61  57 W8        29.85S
ORANGE CITY    MOSUNNY   77  61  57 W12       29.85S
SHELDON        MOSUNNY   77  63  61 NW9G16    29.83S
SIOUX CITY     SUNNY     79  60  52 VRB6      29.84F
SPENCER        MOSUNNY   78  60  53 W9        29.83F
STORM LAKE     MOSUNNY   75  70  83 W10G17    29.85S
$$

ABBREVIATIONS USED IN REMARKS
   TC - TEMPERATURE IN CELSIUS
  WCI - WIND CHILL INDEX
   HX - HEAT INDEX
  VSB - VISIBILITY



USA.gov is the U.S. government's official web portal to all federal, state and local government web resources and services.